Onweer van: 25-07-2021 11:00 tot: 20:00 waarschuwing voor: Onweer niveau: Geel info button


waarschuwing voor Onweer Meer informatie blitzortung!


Regen radar Meer informatie rain snow radar


Bezoek onze andere website:

Template documentation
and downloads

And another site



15 daagse weersverwachting Liège (BE)

  • Overzicht
  • Per uur
  • 15 dagen
  • Extra
  • Vergelijk
  • Kaarten
  • Dagkaart
  • Meer »
  • Info
  • Statistieken
  • Directe link
    Temp 6h Neerslag Wind  
 05:57     21:32    Daglengte: 15:35 Vandaag
08:00
17°
 
3
14:00
23°
 
4
20:00
21°
5.7 mm
2
 05:59     21:31    Daglengte: 15:32 Morgen
02:00
17°
 
3
08:00
18°
 
3
14:00
21°
5.8 mm
4
20:00
19°
24.6 mm
3
 06:00     21:29    Daglengte: 15:29 Dinsdag 27 Jul
02:00
16°
6.2 mm
2
08:00
17°
 
3
14:00
21°
 
4
20:00
19°
21.8 mm
4
 06:01     21:28    Daglengte: 15:27 Woensdag 28 Jul
02:00
16°
 
3
Locatie info
Region: Wallonie
Latitude: 50.6455°N
Longitude: 5.5725°E
66 masl
Postcode: 4000
Temp/Neerslag /Baro Onweer/Dauwpunt
    Temp Baro 1h Neerslag Dauwpunt Wind UV Bewolking  
 05:57     21:32    Daglengte: 15:35 Vandaag
06:00
16°
1008.4 hPa
48%
15.2°
2
Windvlaag: 5.5 m/s
15%
07:00
17°
1008.4 hPa
14%
15.4°
2
Windvlaag: 4.5 m/s
37%
08:00
17°
1008.5 hPa
14%
16.0°
3
Windvlaag: 5.3 m/s
37%
09:00
19°
1008.6 hPa
14%
16.7°
3
Windvlaag: 6 m/s
10%
10:00
20°
1008.7 hPa
14%
16.1°
3
Windvlaag: 6.6 m/s
9%
11:00
21°
1008.6 hPa
24%
14.0°
3
Windvlaag: 6.9 m/s
12%
12:00
22°
1008.5 hPa
81%
13.1°
3
Windvlaag: 7.3 m/s
11%
13:00
23°
1008.2 hPa
82%
14.9°
4
Windvlaag: 7.6 m/s
11%
14:00
23°
1008.1 hPa
82%
15.7°
4
Windvlaag: 7.6 m/s
21%
15:00
23°
1008.2 hPa
79%
15.6°
3
Windvlaag: 7.6 m/s
34%
16:00
22°
1008.3 hPa 5.7 mm
81%
13.5°
3
Windvlaag: 6 m/s
44% warningclass
17:00
22°
1008.2 hPa
82%
12.8°
3
Windvlaag: 6.2 m/s
36%
18:00
22°
1008.0 hPa
77%
13.6°
3
Windvlaag: 6 m/s
18%
19:00
22°
1008.1 hPa
79%
13.9°
3
Windvlaag: 5.5 m/s
17%
20:00
21°
1008.3 hPa
82%
14.4°
2
Windvlaag: 4.5 m/s
11%
21:00
20°
1008.6 hPa
63%
15.3°
2
Windvlaag: 4.2 m/s
16%
22:00
19°
1009.0 hPa
22%
15.8°
2
Windvlaag: 3.4 m/s
15%
23:00
19°
1009.3 hPa
14%
16.0°
3
Windvlaag: 4.5 m/s
10%
 05:59     21:31    Daglengte: 15:32 Morgen
00:00
18°
1009.3 hPa
14%
15.0°
2
Windvlaag: 4.8 m/s
10%
01:00
17°
1009.3 hPa
14%
14.6°
2
Windvlaag: 5 m/s
14%
02:00
17°
1009.2 hPa
14%
14.3°
3
Windvlaag: 5.4 m/s
11%
03:00
17°
1009.1 hPa
14%
14.7°
3
Windvlaag: 5.3 m/s
29%
04:00
17°
1009.2 hPa
14%
14.7°
3
Windvlaag: 5.6 m/s
31%
05:00
17°
1009.3 hPa
14%
14.8°
3
Windvlaag: 5.8 m/s
22%
06:00
17°
1009.5 hPa
14%
14.8°
3
Windvlaag: 5.7 m/s
35%
07:00
17°
1009.8 hPa
14%
14.7°
3
Windvlaag: 4.9 m/s
31%
08:00
18°
1010.1 hPa
15%
14.7°
3
Windvlaag: 6.3 m/s
31%
09:00
18°
1010.2 hPa
14%
14.6°
4
Windvlaag: 7.8 m/s
30%
10:00
19°
1010.6 hPa
17%
14.4°
4
Windvlaag: 8 m/s
12%
11:00
20°
1010.5 hPa
25%
15.5°
5
Windvlaag: 7.9 m/s
21%
12:00
20°
1010.7 hPa
78%
15.9°
4
Windvlaag: 7.9 m/s
12%
13:00
21°
1010.5 hPa 5.8 mm
79%
16.3°
4
Windvlaag: 8.1 m/s
13%
14:00
21°
1010.4 hPa
82%
16.3°
4
Windvlaag: 8.3 m/s
27%
15:00
21°
1010.4 hPa
82%
15.2°
5
Windvlaag: 8.2 m/s
63%
16:00
21°
1010.3 hPa
82%
15.7°
5
Windvlaag: 8.1 m/s
61%
17:00
21°
1010.5 hPa 6.0 mm
82%
15.7°
4
Windvlaag: 8.2 m/s
31% warningclass
18:00
21°
1010.5 hPa 6.2 mm
82%
15.8°
4
Windvlaag: 6.9 m/s
21%
19:00
20°
1010.6 hPa 6.2 mm
82%
14.3°
4
Windvlaag: 6.4 m/s
44%
20:00
19°
1010.9 hPa 6.2 mm
81%
13.3°
3
Windvlaag: 5.8 m/s
64%
21:00
19°
1011.1 hPa 6.2 mm
82%
13.8°
3
Windvlaag: 5.1 m/s
59%
22:00
18°
1011.8 hPa
69%
14.7°
2
Windvlaag: 4.5 m/s
60%
23:00
17°
1012.1 hPa
73%
14.2°
3
Windvlaag: 5.6 m/s
69%
 06:00     21:29    Daglengte: 15:29 Dinsdag 27 Jul
00:00
17°
1012.4 hPa
22%
14.5°
3
Windvlaag: 5.7 m/s
45%
01:00
17°
1012.4 hPa
21%
14.2°
3
Windvlaag: 5.3 m/s
46%
02:00
16°
1012.2 hPa
21%
14.0°
2
Windvlaag: 4.8 m/s
61%
03:00
16°
1012.1 hPa
21%
14.3°
2
Windvlaag: 4.5 m/s
60%
04:00
16°
1012.1 hPa
21%
14.4°
3
Windvlaag: 5.3 m/s
51%
05:00
16°
1012.0 hPa
21%
14.6°
2
Windvlaag: 5.3 m/s
60%
06:00
16°
1011.7 hPa
21%
14.6°
3
Windvlaag: 5.9 m/s
67%
07:00
16°
1012.0 hPa
21%
14.2°
3
Windvlaag: 6 m/s
81%
08:00
17°
1012.0 hPa
21%
13.8°
3
Windvlaag: 5.7 m/s
82%
09:00
18°
1012.0 hPa
21%
14.4°
4
Windvlaag: 10 m/s
63%
10:00
20°
1012.0 hPa
21%
15.0°
4
Windvlaag: 7.5 m/s
60%
11:00
21°
1011.8 hPa
24%
14.6°
4
Windvlaag: 8.1 m/s
72%
12:00
21°
1011.7 hPa
79%
15.3°
4
Windvlaag: 8.1 m/s
84%
13:00
22°
1011.6 hPa
83%
17.3°
4
Windvlaag: 11.9 m/s
92%
14:00
21°
1011.7 hPa
100%
15.8°
4
Windvlaag: 8.2 m/s
88%
15:00
20°
1011.8 hPa 10.9 mm
100%
11.0°
4
Windvlaag: 8.2 m/s
81%
16:00
20°
1011.4 hPa 10.9 mm
100%
9.9°
3
Windvlaag: 7.5 m/s
93%
17:00
21°
1011.1 hPa
98%
10.4°
4
Windvlaag: 8.9 m/s
61%
18:00
21°
1010.7 hPa
40%
12.9°
5
Windvlaag: 6.8 m/s
96%
19:00
20°
1010.8 hPa
34%
12.8°
5
Windvlaag: 11.3 m/s
57%
20:00
19°
1011.0 hPa
93%
12.7°
4
Windvlaag: 10.8 m/s
72%
21:00
18°
1011.0 hPa
85%
13.3°
3
Windvlaag: 8.6 m/s
63%
22:00
17°
1011.5 hPa
21%
14.0°
3
Windvlaag: 6.9 m/s
58%
23:00
17°
1011.6 hPa
24%
14.9°
3
Windvlaag: 8.5 m/s
16%
 06:01     21:28    Daglengte: 15:27 Woensdag 28 Jul
00:00
17°
1011.8 hPa
30%
14.4°
3
Windvlaag: 9.3 m/s
19%
01:00
17°
1011.8 hPa
32%
14.7°
3
Windvlaag: 7.2 m/s
19%
02:00
16°
1011.6 hPa
68%
15.0°
3
Windvlaag: 8.3 m/s
20%
Temp/Neerslag /Baro Onweer/Dauwpunt
    Temp Baro Neerslag Dauwpunt Wind Bewolking  
 05:57     21:32    Daglengte: 15:35 Vandaag
08:00
17°
1008.5 hPa   16.0°
3
37%
11:00
21°
1008.6 hPa   14.0°
3
12%
14:00
23°
1008.1 hPa   15.7°
4
21%
17:00
22°
1008.2 hPa 5.7 mm 12.8°
3
36%
20:00
21°
1008.3 hPa   14.4°
2
11%
23:00
19°
1009.3 hPa   16.0°
3
10%
 05:59     21:31    Daglengte: 15:32 Morgen
02:00
17°
1009.2 hPa   14.3°
3
11%
05:00
17°
1009.3 hPa   14.8°
3
22%
08:00
18°
1010.1 hPa   14.7°
3
31%
11:00
20°
1010.5 hPa   15.5°
5
21%
14:00
21°
1010.4 hPa 5.8 mm 16.3°
4
27%
17:00
21°
1010.5 hPa 6.0 mm 15.7°
4
31% warningclass
20:00
19°
1010.9 hPa 18.6 mm 13.3°
3
64%
23:00
17°
1012.1 hPa 6.2 mm 14.2°
3
69%
 06:00     21:29    Daglengte: 15:29 Dinsdag 27 Jul
02:00
16°
1012.2 hPa   14.0°
2
61%
05:00
16°
1012.0 hPa   14.6°
2
60%
08:00
17°
1012.0 hPa   13.8°
3
82%
11:00
21°
1011.8 hPa   14.6°
4
72%
14:00
21°
1011.7 hPa   15.8°
4
88%
17:00
21°
1011.1 hPa 21.8 mm 10.4°
4
61%
20:00
19°
1011.0 hPa   12.7°
4
72%
23:00
17°
1011.6 hPa   14.9°
3
16%
 06:01     21:28    Daglengte: 15:27 Woensdag 28 Jul
02:00
16°
1011.6 hPa   15.0°
3
20%
05:00
15°
1011.0 hPa 21.9 mm 13.2°
5
1%
08:00
16°
1012.2 hPa 21.9 mm 14.0°
5
1%
11:00
16°
1013.6 hPa 22.1 mm 13.4°
5
1%
14:00
19°
1013.6 hPa 23.0 mm 14.7°
6
1%
17:00
19°
1014.1 hPa 24.1 mm 14.1°
5
1%
20:00
18°
1014.0 hPa 24.4 mm 14.1°
3
1%
23:00
14°
1014.5 hPa 24.5 mm 12.3°
3
0%
 06:03     21:26    Daglengte: 15:23 Donderdag 29 Jul
02:00
13°
1013.7 hPa 24.5 mm 11.4°
3
0%
05:00
14°
1012.3 hPa 24.5 mm 9.8°
3
0%
08:00
16°
1011.8 hPa 24.5 mm 12.2°
4
1%
11:00
20°
1011.1 hPa 24.5 mm 14.2°
7
0%
14:00
22°
1010.2 hPa 24.6 mm 13.3°
7
0%
17:00
21°
1009.9 hPa 24.8 mm 15.3°
7
1%
20:00
18°
1010.2 hPa 25.4 mm 15.3°
6
1%
23:00
16°
1011.2 hPa 25.8 mm 13.9°
4
1%
 06:04     21:25    Daglengte: 15:21 Vrijdag 30 Jul
02:00
14°
1011.9 hPa 25.8 mm 10.8°
4
1%
05:00
12°
1012.2 hPa 25.8 mm 9.6°
3
0%
08:00
14°
1012.4 hPa 25.8 mm 11.2°
4
1%
11:00
18°
1012.5 hPa 25.8 mm 11.7°
6
1%
14:00
20°
1011.8 hPa 25.8 mm 11.5°
6
1%
17:00
20°
1011.1 hPa 25.8 mm 12.1°
5
1%
20:00
17°
1010.9 hPa 25.9 mm 12.5°
3
1%
23:00
15°
1010.5 hPa 25.9 mm 12.3°
2
1%
 06:06     21:23    Daglengte: 15:17 Zaterdag 31 Jul
02:00
15°
1009.1 hPa 25.9 mm 12.6°
2
1%
05:00
14°
1007.2 hPa 28.3 mm 13.7°
1
1%
08:00
15°
1006.6 hPa 29.9 mm 14.6°
5
1%
11:00
15°
1008.7 hPa 30.5 mm 13.9°
5
1%
14:00
19°
1009.7 hPa 31.1 mm 13.7°
8
1%
17:00
19°
1010.0 hPa 31.6 mm 13.8°
8
0%
20:00
17°
1010.5 hPa 32.3 mm 13.2°
6
0%
23:00
14°
1012.2 hPa 32.4 mm 11.6°
4
0%
 06:07     21:22    Daglengte: 15:15 Zondag 01 Aug
02:00
12°
1013.1 hPa 32.4 mm 10.8°
4
0%
05:00
12°
1013.4 hPa   10.3°
4
1%
08:00
13°
1014.1 hPa 64.7 mm 11.4°
4
1%
14:00
19°
1014.6 hPa 67.4 mm 14.2°
7
1%
20:00
17°
1015.1 hPa 71.2 mm 13.6°
4
1%
 06:09     21:20    Daglengte: 15:11 Maandag 02 Aug
02:00
12°
1017.8 hPa 73.6 mm 11.3°
3
0%
08:00
12°
1019.9 hPa 73.8 mm 10.2°
3
0%
14:00
19°
1020.9 hPa 74.6 mm 9.7°
3
1%
20:00
17°
1021.1 hPa 75.2 mm 11.4°
2
1%
 06:10     21:18    Daglengte: 15:08 Dinsdag 03 Aug
02:00
10°
1022.5 hPa 75.2 mm 7.9°
1
0%
14:00
19°
1020.3 hPa 112.9 mm 8.7°
3
1%
20:00
16°
1019.1 hPa 75.2 mm 10.4°
4
1%
 06:12     21:17    Daglengte: 15:05 Woensdag 04 Aug
02:00
12°
1012.2 hPa 0.7 mm 10.4°
2
52%
08:00
13°
1012.3 hPa 0.2 mm 11.0°
3
50%
14:00
19°
1012.0 hPa 0.7 mm 13.4°
4
65%
20:00
17°
1012.0 hPa 2.3 mm 13.7°
2
57%
 06:13     21:15    Daglengte: 15:02 Donderdag 05 Aug
02:00
13°
1013.3 hPa 0.5 mm 11.1°
2
58%
08:00
13°
1013.3 hPa 0.4 mm 11.6°
3
66%
14:00
19°
1013.2 hPa 1.5 mm 13.2°
3
72%
20:00
17°
1013.3 hPa 1.6 mm 13.8°
2
69%
 06:14     21:13    Daglengte: 14:59 Vrijdag 06 Aug
02:00
13°
1014.1 hPa 0.4 mm 11.5°
2
65%
08:00
14°
1014.1 hPa 0.7 mm 12.1°
2
71%
14:00
19°
1013.9 hPa 0.8 mm 13.6°
3
69%
20:00
17°
1013.7 hPa 1.6 mm 13.9°
2
68%
 06:16     21:12    Daglengte: 14:56 Zaterdag 07 Aug
02:00
13°
1014.8 hPa 0.5 mm 11.3°
2
68%
08:00
14°
1014.7 hPa 0.4 mm 12.0°
2
70%
14:00
19°
1014.0 hPa 1.1 mm 13.7°
3
74%
20:00
17°
1013.7 hPa 2.1 mm 14.1°
1
71%
 06:17     21:10    Daglengte: 14:53 Zondag 08 Aug
02:00
14°
1014.7 hPa 0.7 mm 12.0°
2
57%
08:00
14°
1014.7 hPa 0.2 mm 12.6°
3
62%
14:00
20°
1014.4 hPa 2.0 mm 14.7°
4
68%
20:00
19°
1014.2 hPa 2.4 mm 15.2°
2
60%
 06:19     21:08    Daglengte: 14:49 Maandag 09 Aug
02:00
14°
1015.1 hPa 0.7 mm 12.7°
2
58%
08:00
15°
1015.2 hPa 0.5 mm 13.2°
2
58%
  CAPE Lifted Index Hail Supercell Tornado SRH 3km CL BTM PRES CL TOP PRES Swiss DWD icon SMHI TS
 05:57     21:32    Daglengte: 15:35 Vandaag
06:00 0 J/kg -0.4 K 0 % 0 % 0 % 0 m²/s² 0 0 1.43 2
07:00 0 J/kg -0.5 K 0 % 0 % 0 % 0 m²/s² 0 0 0.97 3
08:00 60 J/kg -0.1 K 0 % 0 % 0 % 0 m²/s² 0 0 0.83 3
09:00 237 J/kg -0.7 K 0 % 0 % 0 % 0 m²/s² 0 0 0.5 1
10:00 322 J/kg -1.0 K 0 % 0 % 0 % 0 m²/s² 0 0 -0.01 2
11:00 229 J/kg -0.3 K 0 % 0 % 0 % 0 m²/s² 0 0 0.75 2
12:00 299 J/kg -1.0 K 0 % 0 % 0 % 0 m²/s² 0 0 0.05 2
13:00 367 J/kg -1.6 K 0 % 0 % 0 % 0 m²/s² 0 0 -0.85 2
14:00 489 J/kg -2.1 K 0 % 0 % 0 % 0 m²/s² 0 0 -1.53 3
15:00 543 J/kg -2.4 K 0 % 0 % 0 % 0 m²/s² 0 0 -1.47 3
16:00 568 J/kg -2.4 K 0 % 0 % 0 % 0 m²/s² 0 0 -1.14 95
17:00 685 J/kg -2.5 K 0 % 0 % 0 % 0 m²/s² 0 0 -1.51 3
18:00 705 J/kg -2.5 K 0 % 0 % 0 % 0 m²/s² 0 0 -1.75 2
19:00 868 J/kg -3.3 K 0 % 0 % 0 % 0 m²/s² 0 0 -1.65 2
20:00 928 J/kg -3.4 K 0 % 0 % 0 % 0 m²/s² 0 0 -0.85 2
21:00 898 J/kg -3.8 K 0 % 0 % 0 % 0 m²/s² 0 0 -2.81 2
22:00 614 J/kg -2.9 K 0 % 0 % 0 % 0 m²/s² 0 0 -0.41 1
23:00 321 J/kg -0.9 K 0 % 0 % 0 % 0 m²/s² 0 0 -0.39 1
 05:59     21:31    Daglengte: 15:32 Morgen
00:00 295 J/kg -1.9 K 0 % 0 % 0 % 0 m²/s² 0 0 -0.82 0
01:00 143 J/kg -2.7 K 0 % 0 % 0 % 0 m²/s² 0 0 -2.19 1
02:00 120 J/kg -2.9 K 0 % 0 % 0 % 0 m²/s² 0 0 -2 2
03:00 370 J/kg -3.3 K 0 % 0 % 0 % 0 m²/s² 0 0 -2.49 3
04:00 472 J/kg -2.4 K 0 % 0 % 0 % 0 m²/s² 0 0 -1.71 3
05:00 460 J/kg -2.6 K 0 % 0 % 0 % 0 m²/s² 0 0 -1.85 2
06:00 336 J/kg -1.8 K 0 % 0 % 0 % 0 m²/s² 0 0 -1.11 3
07:00 223 J/kg -1.3 K 0 % 0 % 0 % 0 m²/s² 0 0 -0.31 2
08:00 196 J/kg -0.9 K 0 % 0 % 0 % 0 m²/s² 0 0 -0.09 2
09:00 30 J/kg 0.2 K 0 % 0 % 0 % 0 m²/s² 0 0 1.19 2
10:00 23 J/kg 0.9 K 0 % 0 % 0 % 0 m²/s² 0 0 1.59 2
11:00 15 J/kg 1.2 K 0 % 0 % 0 % 0 m²/s² 0 0 1.77 2
12:00 66 J/kg 0.2 K 0 % 0 % 0 % 0 m²/s² 0 0 0.89 2
13:00 153 J/kg -0.5 K 0 % 0 % 0 % 0 m²/s² 0 0 0.58 3
14:00 424 J/kg -1.6 K 0 % 0 % 0 % 0 m²/s² 0 0 -0.13 2
15:00 565 J/kg -2.2 K 0 % 0 % 0 % 0 m²/s² 0 0 -0.85 3
16:00 676 J/kg -2.7 K 0 % 0 % 0 % 0 m²/s² 0 0 -1.5 3
17:00 815 J/kg -3.2 K 0 % 0 % 0 % 0 m²/s² 0 0 -2.45 80
18:00 791 J/kg -3.0 K 0 % 0 % 0 % 0 m²/s² 0 0 -0.81 3
19:00 952 J/kg -3.6 K 0 % 0 % 0 % 0 m²/s² 0 0 -0.72 80
20:00 900 J/kg -3.6 K 0 % 0 % 0 % 0 m²/s² 0 0 -0.48 80
21:00 793 J/kg -3.4 K 0 % 0 % 0 % 0 m²/s² 0 0 0.17 3
22:00 813 J/kg -3.8 K 0 % 0 % 0 % 0 m²/s² 0 0 -1.07 3
23:00 820 J/kg -3.7 K 0 % 0 % 0 % 0 m²/s² 0 0 -1.21 2
 06:00     21:29    Daglengte: 15:29 Dinsdag 27 Jul
00:00 581 J/kg -3.0 K 0 % 0 % 0 % 0 m²/s² 0 0 -0.72 2
01:00 320 J/kg -2.9 K 0 % 0 % 0 % 0 m²/s² 0 0 0.97 2
02:00 239 J/kg -2.7 K 0 % 0 % 0 % 0 m²/s² 0 0 0.96 1
03:00 134 J/kg -2.4 K 0 % 0 % 0 % 0 m²/s² 0 0 1.77 1
04:00 91 J/kg -2.7 K 0 % 0 % 0 % 0 m²/s² 0 0 2.16 1
05:00 58 J/kg -2.5 K 0 % 0 % 0 % 0 m²/s² 0 0 2.87 3
06:00 6 J/kg -0.7 K 0 % 0 % 0 % 0 m²/s² 0 0 4.82 3
07:00 53 J/kg -1.2 K 0 % 0 % 0 % 0 m²/s² 0 0 3.42 3
08:00 139 J/kg -1.8 K 0 % 0 % 0 % 0 m²/s² 0 0 2.04 3
09:00 176 J/kg -1.7 K 0 % 0 % 0 % 0 m²/s² 0 0 1.66 3
10:00 309 J/kg -2.1 K 0 % 0 % 0 % 0 m²/s² 0 0 -0.06 3
11:00 550 J/kg -2.7 K 0 % 0 % 0 % 0 m²/s² 0 0 -2.1 3
12:00 118 J/kg -0.6 K 0 % 0 % 0 % 0 m²/s² 0 0 -0.18 3
13:00 1 J/kg 0.6 K 0 % 0 % 0 % 0 m²/s² 0 0 0.72 3
14:00 5 J/kg 0.6 K 0 % 0 % 0 % 0 m²/s² 0 0 1.2 3
15:00 132 J/kg -0.8 K 0 % 0 % 0 % 0 m²/s² 0 0 0.43 80
16:00 389 J/kg -2.1 K 0 % 0 % 0 % 0 m²/s² 0 0 -0.66 61
17:00 603 J/kg -2.7 K 0 % 0 % 0 % 0 m²/s² 0 0 -1.38 3
18:00 602 J/kg -3.0 K 0 % 0 % 0 % 0 m²/s² 0 0 -1.92 3
19:00 218 J/kg -0.8 K 0 % 0 % 0 % 0 m²/s² 0 0 -0.14 3
20:00 87 J/kg 0.0 K 0 % 0 % 0 % 0 m²/s² 0 0 0.75 3
21:00 0 J/kg 1.2 K 0 % 0 % 0 % 0 m²/s² 0 0 2.13 3
22:00 0 J/kg -0.5 K 0 % 0 % 0 % 0 m²/s² 0 0 0.7 3
23:00 74 J/kg -1.1 K 0 % 0 % 0 % 0 m²/s² 0 0 0.13 2
 06:01     21:28    Daglengte: 15:27 Woensdag 28 Jul
00:00 190 J/kg -1.5 K 0 % 0 % 0 % 0 m²/s² 0 0 -0.42 2
01:00 316 J/kg -1.3 K 0 % 0 % 0 % 0 m²/s² 0 0 -0.73 2
02:00 350 J/kg -1.3 K 0 % 0 % 0 % 0 m²/s² 0 0 0.5 2
Temp Baro Wind Neerslag
  EWN Forecast EWN WRFDA DWD ICON FMI HIRLAM MET Norway GFS
 05:57     21:32    Daglengte: 15:35 Vandaag
08:00 17.4° 1008.5 hPa 2.5 m/s 0.0 mm 18.2° 1007.2 hPa 1.9 m/s 73.9 mm 17.1° 1008.7 hPa 1.2 m/s -0.0 mm 17.5° 1008.6 hPa 2.8 m/s 0.0 mm 17.0° 1008.8 hPa 2.5 m/s
11:00 21.4° 1008.6 hPa 3.2 m/s 0.0 mm 22.1° 1007.5 hPa 3.9 m/s 74.0 mm 21.1° 1009.3 hPa 2.5 m/s 0.0 mm 23.0° 1008.6 hPa 3.3 m/s 0.0 mm 20.4° 1009.0 hPa 4.4 m/s
14:00 22.6° 1008.1 hPa 3.5 m/s 0.0 mm 23.1° 1007.4 hPa 4.0 m/s 75.9 mm 21.8° 1008.9 hPa 2.7 m/s 0.4 mm 23.9° 1008.0 hPa 4.0 m/s 0.0 mm 22.7° 1008.6 hPa 4.4 m/s
17:00 22.2° 1008.2 hPa 3.2 m/s 5.7 mm 23.7° 1006.8 hPa 3.7 m/s 77.7 mm 21.1° 1008.8 hPa 2.2 m/s 1.3 mm 25.0° 1007.3 hPa 4.5 m/s 0.0 mm 21.7° 1008.5 hPa 4.2 m/s
20:00 21.4° 1008.3 hPa 2.2 m/s 0.0 mm 23.0° 1006.8 hPa 2.1 m/s 79.9 mm 20.9° 1008.6 hPa 1.9 m/s 0.2 mm 23.2° 1008.0 hPa 4.2 m/s 0.0 mm 19.5° 1008.7 hPa 3.4 m/s
23:00 18.8° 1009.3 hPa 2.6 m/s 0.0 mm 19.2° 1007.7 hPa 4.2 m/s 82.4 mm 18.2° 1009.6 hPa 1.7 m/s 0.1 mm 20.1° 1009.3 hPa 3.5 m/s 0.0 mm 16.6° 1009.6 hPa 2.4 m/s
 05:59     21:31    Daglengte: 15:32 Morgen
02:00 17.0° 1009.2 hPa 2.6 m/s 0.0 mm 17.4° 1007.0 hPa 3.4 m/s 83.3 mm 16.5° 1009.6 hPa 1.2 m/s 0.0 mm 18.2° 1009.4 hPa 3.3 m/s 0.0 mm 15.4° 1009.2 hPa 2.8 m/s
05:00 16.8° 1009.3 hPa 2.8 m/s 0.0 mm 17.0° 1007.4 hPa 2.5 m/s 83.5 mm 16.6° 1009.7 hPa 1.5 m/s 0.0 mm 16.8° 1009.5 hPa 3.0 m/s 0.0 mm 14.8° 1009.5 hPa 2.8 m/s
08:00 17.7° 1010.1 hPa 3.3 m/s 0.0 mm 17.4° 1008.1 hPa 4.0 m/s 84.1 mm 17.8° 1010.5 hPa 2.4 m/s 0.0 mm 18.5° 1010.0 hPa 3.8 m/s 0.0 mm 16.0° 1010.4 hPa 4.3 m/s
11:00 19.9° 1010.5 hPa 4.5 m/s 0.0 mm 17.6° 1009.5 hPa 5.3 m/s 84.6 mm 19.9° 1010.7 hPa 4.3 m/s 0.0 mm 21.9° 1010.3 hPa 5.1 m/s 0.0 mm 18.5° 1011.4 hPa 5.4 m/s
14:00 21.4° 1010.4 hPa 4.5 m/s 5.8 mm 21.7° 1009.5 hPa 4.9 m/s 84.7 mm 21.2° 1010.5 hPa 4.3 m/s 0.2 mm 22.8° 1010.2 hPa 5.1 m/s 0.0 mm 20.7° 1011.4 hPa 5.4 m/s
17:00 20.7° 1010.5 hPa 4.3 m/s 6.0 mm 21.7° 1009.9 hPa 5.6 m/s 85.0 mm 20.6° 1010.5 hPa 3.9 m/s 0.9 mm 22.6° 1010.0 hPa 5.5 m/s 0.0 mm 20.4° 1011.8 hPa 5.1 m/s
20:00 19.3° 1010.9 hPa 3.4 m/s 18.6 mm 22.5° 1009.7 hPa 3.6 m/s 89.0 mm 18.6° 1011.1 hPa 3.3 m/s 0.7 mm 21.9° 1010.6 hPa 4.3 m/s 0.0 mm 19.0° 1012.2 hPa 3.3 m/s
23:00 17.5° 1012.1 hPa 2.7 m/s 6.2 mm 19.6° 1010.1 hPa 2.8 m/s 89.8 mm 17.2° 1012.4 hPa 2.1 m/s 0.4 mm 18.5° 1012.9 hPa 2.5 m/s
 06:00     21:29    Daglengte: 15:29 Dinsdag 27 Jul
02:00 16.4° 1012.2 hPa 2.5 m/s 0.0 mm 17.6° 1010.6 hPa 3.2 m/s 90.8 mm 16.2° 1012.3 hPa 2.0 m/s 0.0 mm 16.8° 1013.0 hPa 2.5 m/s
05:00 16.1° 1012.0 hPa 2.5 m/s 0.0 mm 16.2° 1009.6 hPa 3.0 m/s 90.8 mm 15.5° 1012.2 hPa 2.1 m/s 0.0 mm 15.1° 1012.7 hPa 2.3 m/s
08:00 17.0° 1012.0 hPa 2.7 m/s 0.0 mm 18.4° 1010.4 hPa 4.3 m/s 90.8 mm 16.9° 1012.2 hPa 2.5 m/s 0.0 mm 17.0° 1012.6 hPa 2.7 m/s
11:00 20.6° 1011.8 hPa 4.1 m/s 0.0 mm 21.1° 1011.1 hPa 4.4 m/s 90.8 mm 20.5° 1012.0 hPa 4.0 m/s 0.0 mm 20.7° 1012.2 hPa 3.5 m/s
14:00 21.2° 1011.7 hPa 4.1 m/s 0.0 mm 18.4° 1012.0 hPa 3.0 m/s 93.2 mm 21.9° 1011.6 hPa 4.3 m/s 0.1 mm 22.1° 1011.9 hPa 4.4 m/s
17:00 20.8° 1011.1 hPa 3.7 m/s 21.8 mm 24.3° 1010.4 hPa 3.8 m/s 94.1 mm 20.0° 1011.3 hPa 3.7 m/s 1.3 mm 19.8° 1011.8 hPa 5.3 m/s
20:00 19.2° 1011.0 hPa 4.2 m/s 0.0 mm 20.2° 1010.7 hPa 5.9 m/s 94.6 mm 18.9° 1011.1 hPa 3.8 m/s 0.0 mm 17.5° 1011.9 hPa 2.7 m/s
23:00 17.1° 1011.6 hPa 2.5 m/s 0.0 mm 17.3° 1010.5 hPa 3.3 m/s 94.9 mm 17.1° 1011.9 hPa 2.3 m/s 0.0 mm 15.4° 1012.7 hPa 3.5 m/s
 06:01     21:28    Daglengte: 15:27 Woensdag 28 Jul
02:00 16.5° 1011.6 hPa 2.6 m/s 0.0 mm 17.1° 1010.6 hPa 3.7 m/s 95.0 mm 16.3° 1011.9 hPa 2.4 m/s 0.0 mm 13.5° 1012.1 hPa 3.5 m/s
05:00 15.0° 1011.0 hPa 5.0 m/s 21.9 mm 15.0° 1011.0 hPa 5.0 m/s 21.9 mm
08:00 15.5° 1012.2 hPa 5.4 m/s 21.9 mm 15.5° 1012.2 hPa 5.4 m/s 21.9 mm
11:00 15.7° 1013.6 hPa 4.8 m/s 22.1 mm 15.7° 1013.7 hPa 4.8 m/s 22.1 mm
14:00 19.4° 1013.6 hPa 5.7 m/s 23.0 mm 19.4° 1013.6 hPa 5.6 m/s 23.0 mm
17:00 19.4° 1014.1 hPa 5.1 m/s 24.1 mm 19.4° 1014.1 hPa 5.1 m/s 24.1 mm
20:00 18.2° 1014.0 hPa 3.3 m/s 24.4 mm 18.2° 1014.0 hPa 3.3 m/s 24.4 mm
23:00 14.1° 1014.5 hPa 2.7 m/s 24.5 mm 14.1° 1014.5 hPa 2.7 m/s 24.5 mm
 06:03     21:26    Daglengte: 15:23 Donderdag 29 Jul
02:00 12.9° 1013.7 hPa 2.9 m/s 24.5 mm 12.9° 1013.7 hPa 2.9 m/s 24.5 mm
05:00 13.7° 1012.3 hPa 3.3 m/s 24.5 mm 13.7° 1012.3 hPa 3.3 m/s 24.5 mm
08:00 15.7° 1011.8 hPa 4.2 m/s 24.5 mm 15.7° 1011.8 hPa 4.2 m/s 24.5 mm
11:00 20.5° 1011.1 hPa 6.6 m/s 24.5 mm 20.5° 1011.1 hPa 6.6 m/s 24.5 mm
14:00 22.5° 1010.2 hPa 7.4 m/s 24.6 mm 22.5° 1010.2 hPa 7.4 m/s 24.6 mm
17:00 21.3° 1009.9 hPa 7.0 m/s 24.8 mm 21.3° 1009.9 hPa 7.0 m/s 24.8 mm
20:00 18.2° 1010.2 hPa 5.9 m/s 25.4 mm 18.2° 1010.2 hPa 5.9 m/s 25.4 mm
23:00 15.9° 1011.2 hPa 4.0 m/s 25.8 mm 15.9° 1011.2 hPa 4.0 m/s 25.8 mm
 06:04     21:25    Daglengte: 15:21 Vrijdag 30 Jul
02:00 13.8° 1011.9 hPa 3.6 m/s 25.8 mm 13.8° 1011.9 hPa 3.6 m/s 25.8 mm
05:00 11.7° 1012.2 hPa 3.4 m/s 25.8 mm 11.7° 1012.2 hPa 3.4 m/s 25.8 mm
08:00 13.7° 1012.4 hPa 3.9 m/s 25.8 mm 13.7° 1012.4 hPa 3.9 m/s 25.8 mm
11:00 18.0° 1012.5 hPa 5.6 m/s 25.8 mm 18.0° 1012.5 hPa 5.6 m/s 25.8 mm
14:00 20.2° 1011.8 hPa 5.5 m/s 25.8 mm 20.2° 1011.8 hPa 5.5 m/s 25.8 mm
17:00 20.0° 1011.1 hPa 4.5 m/s 25.8 mm 20.0° 1011.1 hPa 4.5 m/s 25.8 mm
20:00 16.9° 1010.9 hPa 2.9 m/s 25.9 mm 16.9° 1010.9 hPa 2.9 m/s 25.9 mm
23:00 15.3° 1010.5 hPa 2.3 m/s 25.9 mm 15.3° 1010.5 hPa 2.3 m/s 25.9 mm
 06:06     21:23    Daglengte: 15:17 Zaterdag 31 Jul
02:00 14.7° 1009.1 hPa 1.9 m/s 25.9 mm 14.7° 1009.1 hPa 1.9 m/s 25.9 mm
05:00 14.2° 1007.2 hPa 1.4 m/s 28.3 mm 14.2° 1007.2 hPa 1.4 m/s 28.3 mm
08:00 15.4° 1006.6 hPa 4.8 m/s 29.9 mm 15.4° 1006.6 hPa 4.8 m/s 29.9 mm
11:00 14.9° 1008.7 hPa 5.5 m/s 30.5 mm 14.9° 1008.7 hPa 5.5 m/s 30.5 mm
14:00 19.0° 1009.7 hPa 8.1 m/s 31.1 mm 19.0° 1009.7 hPa 8.1 m/s 31.1 mm
17:00 19.1° 1010.0 hPa 7.6 m/s 31.6 mm 19.1° 1010.0 hPa 7.6 m/s 31.6 mm
20:00 17.1° 1010.5 hPa 6.1 m/s 32.3 mm 17.1° 1010.5 hPa 6.1 m/s 32.3 mm
23:00 13.7° 1012.2 hPa 4.1 m/s 32.4 mm 13.7° 1012.2 hPa 4.1 m/s 32.4 mm
 06:07     21:22    Daglengte: 15:15 Zondag 01 Aug
02:00 12.5° 1013.1 hPa 3.9 m/s 32.4 mm 12.5° 1013.1 hPa 3.9 m/s 32.4 mm
05:00 11.6° 1013.4 hPa 3.7 m/s 32.4 mm 11.6° 1013.4 hPa 3.7 m/s 32.4 mm
08:00 13.5° 1014.1 hPa 4.0 m/s 32.4 mm 13.5° 1014.1 hPa 4.0 m/s 32.4 mm
14:00 18.6° 1014.6 hPa 6.5 m/s 34.8 mm 18.6° 1014.6 hPa 6.5 m/s 34.8 mm
20:00 16.9° 1015.1 hPa 4.2 m/s 35.9 mm 16.9° 1015.1 hPa 4.2 m/s 35.9 mm
 06:09     21:20    Daglengte: 15:11 Maandag 02 Aug
02:00 11.9° 1017.8 hPa 2.6 m/s 36.9 mm 11.9° 1017.8 hPa 2.6 m/s 36.9 mm
08:00 11.8° 1019.9 hPa 3.1 m/s 36.9 mm 11.8° 1019.9 hPa 3.1 m/s 36.9 mm
14:00 18.6° 1020.9 hPa 3.2 m/s 37.5 mm 18.6° 1020.9 hPa 3.2 m/s 37.5 mm
20:00 16.8° 1021.1 hPa 1.7 m/s 37.6 mm 16.8° 1021.1 hPa 1.7 m/s 37.6 mm
 06:10     21:18    Daglengte: 15:08 Dinsdag 03 Aug
02:00 10.3° 1022.5 hPa 1.1 m/s 37.6 mm 10.3° 1022.5 hPa 1.1 m/s 37.6 mm
14:00 18.7° 1020.3 hPa 3.2 m/s 37.6 mm 18.7° 1020.3 hPa 3.2 m/s 37.6 mm
20:00 16.3° 1019.1 hPa 3.6 m/s 37.6 mm 16.3° 1019.1 hPa 3.6 m/s 37.6 mm
 06:12     21:17    Daglengte: 15:05 Woensdag 04 Aug
02:00 11.8° 1012.2 hPa 2.2 m/s 0.7 mm
08:00 12.6° 1012.3 hPa 2.9 m/s 0.2 mm
14:00 18.7° 1012.0 hPa 3.7 m/s 0.7 mm
20:00 17.2° 1012.0 hPa 1.9 m/s 2.3 mm
 06:13     21:15    Daglengte: 15:02 Donderdag 05 Aug
02:00 12.7° 1013.3 hPa 2.2 m/s 0.5 mm
08:00 13.3° 1013.3 hPa 2.7 m/s 0.4 mm
14:00 18.7° 1013.2 hPa 2.9 m/s 1.5 mm
20:00 17.5° 1013.3 hPa 1.5 m/s 1.6 mm
 06:14     21:13    Daglengte: 14:59 Vrijdag 06 Aug
02:00 13.0° 1014.1 hPa 1.9 m/s 0.4 mm
08:00 13.7° 1014.1 hPa 2.2 m/s 0.7 mm
14:00 19.4° 1013.9 hPa 3.3 m/s 0.8 mm
20:00 17.4° 1013.7 hPa 1.6 m/s 1.6 mm
 06:16     21:12    Daglengte: 14:56 Zaterdag 07 Aug
02:00 12.9° 1014.8 hPa 1.7 m/s 0.5 mm
08:00 13.6° 1014.7 hPa 2.3 m/s 0.4 mm
14:00 19.2° 1014.0 hPa 3.0 m/s 1.1 mm
20:00 17.4° 1013.7 hPa 1.5 m/s 2.1 mm
 06:17     21:10    Daglengte: 14:53 Zondag 08 Aug
02:00 13.7° 1014.7 hPa 2.3 m/s 0.7 mm
08:00 14.2° 1014.7 hPa 2.7 m/s 0.2 mm
14:00 19.8° 1014.4 hPa 3.5 m/s 2.0 mm
20:00 18.5° 1014.2 hPa 2.1 m/s 2.4 mm
 06:19     21:08    Daglengte: 14:49 Maandag 09 Aug
02:00 14.3° 1015.1 hPa 2.0 m/s 0.7 mm
08:00 14.6° 1015.2 hPa 2.4 m/s 0.5 mm
FMI Hirlam - 7.5 km EWN WRFDA - 12 km DWD ICON - 7 km GFS - 25 km Basiskaart






























































Updatetijd (Europe/Amsterdam) Resolutie Lengte Stap
FMI Hirlam 02:00, 08:00, 14:00, 20:00 7.5 km 49h 1h
EWN WRFDA 05:30, 11:30, 17:30, 23:30 12 km 73h 1h
DWD ICON 23:45, 05:45, 11:45, 17:45 7 km 75h 1h
GFS 02:15, 08:15, 14:15, 20:15 25 km 237h 3h
30+ mm
25-30 mm
20-25 mm
15-20 mm
10-15 mm
6-10 mm
4-6 mm
2-4 mm
1-2 mm
0.5-1 mm
0.2-0.5 mm
0.1-0.2 mm
30+ mm
25-30 mm
20-25 mm
15-20 mm
10-15 mm
6-10 mm
4-6 mm
2-4 mm
1-2 mm
0.5-1 mm
0.2-0.5 mm
0.1-0.2 mm
Sneeuwval
Natte sneeuw
Hagel
Vorst
30+ mm
25-30 mm
20-25 mm
15-20 mm
10-15 mm
6-10 mm
4-6 mm
2-4 mm
1-2 mm
0.5-1 mm
0.2-0.5 mm
0.1-0.2 mm
Sneeuwval
Natte sneeuw
Hagel
Vorst
Onweer
50 mm
40 mm
30 mm
26 mm
22 mm
18 mm
14 mm
10 mm
9 mm
8 mm
7 mm
6 mm
5 mm
4.5 mm
4 mm
3.5 mm
3 mm
2.5 mm
2 mm
1.5 mm
1 mm
0.8 mm
0.6 mm
0.4 mm
0.2 mm
0.05 mm
35°
30°
25°
20°
15°
10°
-5°
-10°
-15°
-20°
-25°
-30°
-35°
33> m/s
29 m/s
25 m/s
21 m/s
17 m/s
14 m/s
11 m/s
8 m/s
5 m/s
3 m/s
0 m/s
2600 J/kg
2400 J/kg
2200 J/kg
2000 J/kg
1800 J/kg
1600 J/kg
1400 J/kg
1200 J/kg
1000 J/kg
800 J/kg
600 J/kg
400 J/kg
200 J/kg
70 dBZ
65 dBZ
60 dBZ
55 dBZ
50 dBZ
45 dBZ
40 dBZ
35 dBZ
30 dBZ
25 dBZ
20 dBZ
15 dBZ
10 dBZ
5 dBZ
-1 K
-2 K
-3 K
-4 K
-5 K
-6 K
-7 K
-8 K
-9 K
950 m²/s²
900 m²/s²
850 m²/s²
800 m²/s²
750 m²/s²
700 m²/s²
650 m²/s²
600 m²/s²
550 m²/s²
500 m²/s²
450 m²/s²
400 m²/s²
350 m²/s²
300 m²/s²
250 m²/s²
200 m²/s²
150 m²/s²
100 m²/s²
46 m/s
44 m/s
42 m/s
40 m/s
38 m/s
36 m/s
34 m/s
32 m/s
30 m/s
28 m/s
26 m/s
24 m/s
22 m/s
20 m/s
16 m/s
12 m/s
8 m/s
4 m/s
30 m/s
28 m/s
26 m/s
24 m/s
22 m/s
20 m/s
18 m/s
16 m/s
14 m/s
12 m/s
10 m/s
8 m/s
6 m/s
4 m/s
2 m/s
3.0
2.8
2.6
2.4
2.2
2.0
1.8
1.6
1.4
1.2
1.0
0.8
0.6
0.4
0.2
15
14
13
12
11
10
9
8
7
6
5
4
3
2
1
90%
80%
70%
60%
50%
40%
30%
20%
10%
42
40
38
36
34
32
30
28
26
24
22
20
18
16
14
12
90+ cm
80-90 cm
70-80 cm
60-70 cm
50-60 cm
40-50 cm
30-40 cm
20-30 cm
10-20 cm
1-10 cm
Sneeuwval
Natte sneeuw
Regen
>120 mm
115 mm
110 mm
105 mm
100 mm
95 mm
90 mm
85 mm
80 mm
75 mm
70 mm
65 mm
60 mm
55 mm
50 mm
45 mm
45 mm
40 mm
35 mm
30 mm
25 mm
20 mm
15 mm
10 mm
5 mm
0.1 mm
960 hPa
880 hPa
800 hPa
720 hPa
640 hPa